Flag for Angola Weather past 2 weeks in Cabinda, Angola

Now
70 °F

Fog.


Feels Like: 70 °F
Forecast: 68 / 72 °F
Wind: 3 mph from Southeast

Location: Pointe Airport-Noire

Current Time: Jul 30, 2015 at 1:11:44 AM

Latest Report: Jul 30, 2015 at 12:00 AM


Visibility: 2 mi

Pressure: 30.07 "Hg

Humidity: 94%

Dew point: 68 °F

Location of CabindaLocation

Historic Weather in Cabinda — Graph

°F

Cabinda temperature yesterday

Maximum temperature yesterday: 75 °F (at 11:00 AM)
Minimum temperature yesterday: 70 °F (at 12:00 AM)
Average temperature yesterday: 72 °F

Past Weeks' High & Low Weather Summary

 TemperatureHumidityPressure
High81 °F (Jul 22, 11:00 AM)94% (Jul 15, 1:00 AM)30.09 "Hg (Jul 15, 1:00 AM)
Low68 °F (Jul 25, 1:00 AM)61% (Jul 25, 10:00 AM)29.89 "Hg (Jul 15, 4:00 PM)
Average72 °F85%30.00 "Hg
* Reported Jul 14 11:00 PM — Jul 29 11:00 PM, Cabinda, Weather by CustomWeather, © 2015

Note: Actual official high and low records may vary slightly from our data, if they occured in-between our weather recording intervals... More about our weather records

Advertising

Cabinda weather history for previous 24 hours

 ConditionsComfort  
Time TempWeatherWind HumidityBarometerVisibility
11:00 PM
Wed, Jul 29
70 °FFog.2 mph94%30.07 "Hg2 mi
10:00 PM70 °FFog.2 mph94%30.04 "Hg2 mi
8:00 PM72 °FPassing clouds.2 mph88%30.01 "Hg4 mi
7:00 PM72 °FPassing clouds.5 mph88%29.98 "Hg4 mi
6:00 PM72 °FScattered clouds.6 mph88%29.98 "Hg4 mi
5:00 PM73 °FPartly sunny.6 mph83%29.98 "Hg4 mi
4:00 PM73 °FOvercast.7 mph83%29.95 "Hg5 mi
3:00 PM73 °FOvercast.7 mph83%29.98 "Hg5 mi
2:00 PM75 °FOvercast.9 mph78%30.01 "Hg5 mi
1:00 PM75 °FBroken clouds.7 mph74%30.01 "Hg5 mi
12:00 PM75 °FPartly sunny.8 mph74%30.04 "Hg5 mi
11:00 AM75 °FBroken clouds.3 mph78%30.07 "Hg4 mi
10:00 AM73 °FOvercast.5 mph83%30.09 "Hg4 mi
9:00 AM72 °FFog.2 mph88%30.07 "Hg2 mi
8:00 AM72 °FFog.No wind88%30.07 "Hg2 mi
7:00 AM70 °FFog.2 mph88%30.04 "Hg2 mi
6:00 AM72 °FPassing clouds.2 mph83%30.04 "Hg4 mi
5:00 AM72 °FPassing clouds.2 mph83%30.01 "Hg4 mi
4:00 AM72 °FPassing clouds.No wind83%30.01 "Hg4 mi
3:00 AM70 °FMostly cloudy.1 mph88%30.01 "Hg4 mi
2:00 AM70 °FMostly cloudy.2 mph88%30.01 "Hg4 mi
1:00 AM70 °FMostly cloudy.2 mph94%30.04 "Hg4 mi
Weather by CustomWeather, © 2015

See weather overviewHow to use our weather pages